Regional Weather Roundup
Issued by NWS Upton, NY

Current Version | Previous Version | Graphics & Text | Print | Product List | Glossary Off
Versions: 1 2 3 4 5 6 7 8 9 10 11 12 13 14 15 16 17 18 19 20 21 22 23 24 25 26 27 28 29 30 31 32 33 34 35 36 37 38 39 40 41 42 43 44 45 46 47 48 49 50
000 ASUS41 KOKX 042005 RWROKX REGIONAL WEATHER ROUNDUP NATIONAL WEATHER SERVICE NEW YORK NY 300 PM EST WED MAR 04 2015 NOTE: "FAIR" INDICATES FEW OR NO CLOUDS BELOW 12,000 FEET WITH NO SIGNIFICANT WEATHER AND/OR OBSTRUCTIONS TO VISIBILITY. NYZ071-072-176-178-NJZ106-104-042100- NEW YORK CITY METRO AREA CITY SKY/WX TMP DP RH WIND PRES REMARKS CENTRAL PARK CLOUDY 45 36 70 W6 29.85F LAGUARDIA APRT CLOUDY 45 38 76 SW9 29.82F KENNEDY INTL LGT RAIN 39 36 89 SW9 29.85F FOG WCI 33 NEWARK/LIBERTY LGT RAIN 42 37 82 SW8 29.83F BRNX BOT. GARD N/A 46 36 66 W5 29.83F TETERBORO CLOUDY 48 35 60 VRB6 29.82F $$ NYZ177-179-078>081-042100- LONG ISLAND NEW YORK CITY SKY/WX TMP DP RH WIND PRES REMARKS FARMINGDALE LGT RAIN 41 37 86 SW7 29.83F FOG ISLIP LGT RAIN 41 35 79 SW9 29.81F SHIRLEY CLOUDY 40 35 83 S10 29.83F HAZE WCI 33 WESTHAMPTON CLOUDY 41 35 79 SW7 29.85S HAZE MONTAUK POINT N/A 43 36 76 SW10 29.83F $$ NYZ052-065-067-042100- HUDSON VALLEY CITY SKY/WX TMP DP RH WIND PRES REMARKS WHITE PLAINS CLOUDY 43 36 76 NW7 29.81S NEWBURGH CLOUDY 39 34 81 W9 29.82F WCI 33 MONTGOMERY CLOUDY 41 33 73 W9 29.83R POUGHKEEPSIE CLOUDY 43 32 65 SW9 29.80F ALBANY CLOUDY 38 27 64 N7 29.83S WCI 33 $$ NJZ001-105-106-008-010-013-015-019>022-104-042100- NEW JERSEY CITY SKY/WX TMP DP RH WIND PRES REMARKS NEWARK/LIBERTY LGT RAIN 42 37 82 SW8 29.83F TETERBORO CLOUDY 48 35 60 VRB6 29.82F CALDWELL CLOUDY 45 34 65 W7 29.84S MORRISTOWN CLOUDY 46 36 66 W8 29.84F SOMERVILLE CLOUDY 44 40 85 VRB3 29.84S FOG SUSSEX CLOUDY 44 32 62 NW7 29.84R ANDOVER N/A 44 34 67 SW3 29.84R TRENTON LGT RAIN 43 39 86 VRB6 29.88R FOG MILLVILLE LGT RAIN 45 43 93 SW3 29.88R FOG ATLANTIC CITY LGT RAIN 46 44 93 SW5 29.88R FOG WRIGHTSTOWN LGT RAIN 44 42 91 W6 29.84F TOMS RIVER CLOUDY 46 43 87 CALM 29.86F BELMAR CLOUDY 45 37 76 W3 29.84F $$ PAZ047>061-062-071-042100- EASTERN PENNSYLVANIA CITY SKY/WX TMP DP RH WIND PRES REMARKS PHILADELPHIA LGT RAIN 42 39 89 SW5 29.90R FOG ALLENTOWN CLOUDY 40 36 86 SW8 29.87R FOG WCI 34 SCRANTON CLOUDY 40 33 76 W8 29.86R WCI 34 $$ CTZ002-004>006-009-010-012-RIZ004-006-007-MAZ004-011-015-042100- SOUTHERN NEW ENGLAND IN CT CITY SKY/WX TMP DP RH WIND PRES REMARKS BRADLEY INTL CLOUDY 43 30 60 W8 29.78F HARTFORD CLOUDY 43 33 68 SW9 29.79F DANBURY CLOUDY 41 31 67 W6 29.82S WTRBRY/OXFORD PTSUNNY 41 30 65 CALM 29.79F BRIDGEPORT CLOUDY 37 34 89 SW10 29.81F FOG WCI 30 MERIDEN CLOUDY 43 33 68 NW3 29.79F NEW HAVEN CLOUDY 41 36 82 SW6 29.80F CHESTER FAIR 43 36 75 NW6 29.80S GROTON CLOUDY 36 34 92 SW8 29.80F FOG WCI 30 WILLIMANTIC CLOUDY 42 33 70 W6 29.79F IN RI CITY SKY/WX TMP DP RH WIND PRES REMARKS PROVIDENCE CLOUDY 43 32 65 NW8 29.80R BLOCK ISLAND CLOUDY 37 34 87 W12 29.81S WCI 30 WESTERLY CLOUDY 38 34 85 SW8 29.82R FOG WCI 32 IN MA CITY SKY/WX TMP DP RH WIND PRES REMARKS BOSTON CLOUDY 42 29 59 W18G28 29.77R WORCESTER CLOUDY 38 28 67 W17G24 29.73S WCI 28 WESTFIELD CLOUDY 42 29 59 CALM 29.76F PROVINCETOWN CLOUDY 36 32 87 SW13 29.78S WCI 27 NANTUCKET CLOUDY 36 34 92 SW12 29.82F FOG WCI 28 $$ ANZ330-335-338-340-345-350-353-355-042100- COASTAL MARINE OBSERVATIONS STATION/POSITION TIME SKY/WX TEMP WIND PRES VSBY WAVE AIR SEA DIR/SP/G HT/PER (UTC) (F) (DEG/KT/KT) (MB) (MI) (FT/S) NY HARB ENTRANCE NOT AVBL 4S FIRE IS 2000 32 N/A 7/ 9 20S FIRE ISLAND 1900 36 1011.4 7/ 9 23SW MTP 2000 N/A 9/10 HUDSON CANYON NOT AVBL EXECUTION ROCKS NOT AVBL WESTERN LI SOUND NOT AVBL CENTRAL LI SOUND NOT AVBL EASTERN LI SOUND NOT AVBL ROBBINS REEF 1900 44 220/ 7/ 8 1008.7 $$ >>>>>>>>>>>>>>>>>>>>>>>>>>>> KEY <<<<<<<<<<<<<<<<<<<<<<<<<<< > < > SKY/WX - SKY CONDITION/PRESENT WEATHER < > TMP - TEMPERATURE IN FAHRENHEIT < > DP - DEWPOINT IN FAHRENHEIT < > RH - RELATIVE HUMIDITY IN PERCENT < > WIND - DIRECTION AND SPEED IN MPH < > PRES - MEAN SEA LEVEL PRESSURE IN INCHES OF HG < > WCI - WIND CHILL INDEX < > VSB - VISIBILITY IN MILES < > HX - HEAT INDEX < > TC - TEMPERATURE IN CELSIUS < > VRB - VARIABLE WIND DIRECTION < > < >>>>>>>>>>>>>>>>>>>>>>>>>>>> KEY <<<<<<<<<<<<<<<<<<<<<<<<<<<

USA.gov is the U.S. government's official web portal to all federal, state and local government web resources and services.